ORBCOMM-X 1 21576U 91050C 26105.13254287 .00000156 00000+0 58665-4 0 9997 2 21576 98.3003 169.9792 0003565 14.5762 345.5531 14.43544179825679 ORBCOMM FM01 1 23545U 95017A 26105.20043176 .00003310 00000+0 30830-3 0 9991 2 23545 69.9624 38.1683 0006687 238.0277 122.0231 14.95246180657573 ORBCOMM FM02 1 23546U 95017B 26105.24972240 .00004434 00000+0 38778-3 0 9996 2 23546 69.9623 55.7537 0008051 237.1024 122.9360 14.97440579657272 ORBCOMM FM08 1 25112U 97084A 26105.07761573 .00000703 00000+0 23063-3 0 9995 2 25112 45.0152 357.1987 0006944 346.7424 13.3245 14.47102598485087 ORBCOMM FM10 1 25113U 97084B 26105.10958937 .00000634 00000+0 21294-3 0 9999 2 25113 45.0166 0.0264 0005136 315.8902 44.1540 14.46823276660228 ORBCOMM FM11 1 25114U 97084C 26104.96064657 .00000646 00000+0 21759-3 0 9999 2 25114 45.0151 1.9398 0005978 315.3587 44.6783 14.46557569485159 ORBCOMM FM12 1 25115U 97084D 26105.05650264 .00000675 00000+0 22539-3 0 9995 2 25115 45.0156 1.1924 0004988 315.3728 44.6722 14.46588182484965 ORBCOMM FM09 1 25116U 97084E 26105.12029140 .00000675 00000+0 22623-3 0 9991 2 25116 45.0162 2.1817 0006109 301.6274 58.3981 14.46406064485177 ORBCOMM FM05 1 25117U 97084F 26105.08923499 .00000729 00000+0 23725-3 0 9991 2 25117 45.0162 357.0807 0002660 326.7457 33.3227 14.47215326484320 ORBCOMM FM06 1 25118U 97084G 26105.14759568 .00000833 00000+0 26437-3 0 9992 2 25118 45.0154 356.1495 0001607 339.1782 179.2041 14.47403543485251 ORBCOMM FM07 1 25119U 97084H 26105.05995798 .00000746 00000+0 24088-3 0 9993 2 25119 45.0149 357.3095 0003354 318.1793 41.8803 14.47404850485235 ORBCOMM FM03 1 25158U 98007B 26105.26363912 .00000579 00000+0 24517-3 0 9993 2 25158 107.9617 36.5181 0042904 78.5832 282.0123 14.35389147467370 ORBCOMM FM04 1 25159U 98007C 26105.26702147 .00000505 00000+0 21927-3 0 9992 2 25159 107.9608 39.9457 0038819 75.5146 285.0297 14.35611820467561 ORBCOMM FM17 1 25413U 98046A 26105.17286098 .00000375 00000+0 17669-3 0 9993 2 25413 44.9943 271.5741 0002285 265.2408 94.8178 14.35814715446562 ORBCOMM FM18 1 25414U 98046B 26105.27372227 .00000450 00000+0 18815-3 0 9993 2 25414 44.9919 180.1290 0003770 333.8231 26.2427 14.39539662447764 ORBCOMM FM19 1 25415U 98046C 26105.19388025 .00000533 00000+0 21540-3 0 9999 2 25415 44.9928 182.9606 0003005 315.2184 67.8782 14.39370758447706 ORBCOMM FM20 1 25416U 98046D 26105.20961044 .00000345 00000+0 15960-3 0 9990 2 25416 44.9931 190.1213 0001565 251.5085 108.5593 14.37972385447724 ORBCOMM FM16 1 25417U 98046E 26105.23722183 .00000397 00000+0 16996-3 0 9990 2 25417 44.9924 177.2915 0003051 349.8186 10.2601 14.39934988447770 ORBCOMM FM15 1 25418U 98046F 26105.22139885 .00000483 00000+0 19874-3 0 9995 2 25418 44.9959 183.4469 0002656 348.2503 11.8283 14.39557726447750 ORBCOMM FM14 1 25419U 98046G 26105.29321337 .00000472 00000+0 19363-3 0 9999 2 25419 44.9946 180.3744 0002067 321.9405 38.1298 14.40000840447743 ORBCOMM FM13 1 25420U 98046H 26105.27494161 .00000412 00000+0 17957-3 0 9996 2 25420 44.9965 191.6256 0004165 332.0353 28.0271 14.38531529446721 ORBCOMM FM21 1 25475U 98053A 26105.15369082 .00000396 00000+0 17617-3 0 9998 2 25475 45.0082 278.6610 0000871 268.5959 91.4790 14.38087877440702 ORBCOMM FM22 1 25476U 98053B 26105.15858916 .00000484 00000+0 19985-3 0 9996 2 25476 45.0075 270.8121 0002505 286.4972 73.5602 14.39336780440766 ORBCOMM FM23 1 25477U 98053C 26105.17630422 .00000452 00000+0 19347-3 0 9996 2 25477 45.0081 280.1497 0001808 279.5380 80.5264 14.38360194440863 ORBCOMM FM24 1 25478U 98053D 26105.19462056 .00000460 00000+0 19350-3 0 9998 2 25478 45.0080 276.1177 0001493 284.0612 76.0071 14.39015603440939 ORBCOMM FM25 1 25479U 98053E 26105.17265136 .00000518 00000+0 21223-3 0 9993 2 25479 45.0069 274.5447 0003537 314.2641 45.7917 14.38975962441225 ORBCOMM FM26 1 25480U 98053F 26105.18776302 .00000385 00000+0 17329-3 0 9992 2 25480 45.0068 273.2650 0005269 335.6593 24.4005 14.37892549441102 ORBCOMM FM27 1 25481U 98053G 26105.15279620 .00000477 00000+0 19893-3 0 9991 2 25481 45.0052 274.7171 0000466 203.6007 156.4820 14.39021088441158 ORBCOMM FM28 1 25482U 98053H 26105.02237326 .00000509 00000+0 20865-3 0 9992 2 25482 45.0049 212.5141 0002836 0.2287 359.8563 14.39109627441829 ORBCOMM FM30 1 25980U 99065A 26105.28248835 .00000373 00000+0 16869-3 0 9992 2 25980 45.0307 98.9423 0004410 70.2065 289.9259 14.38055516377929 ORBCOMM FM31 1 25981U 99065B 26105.27064305 .00000377 00000+0 17016-3 0 9999 2 25981 45.0220 92.4356 0001640 106.8837 253.2192 14.37974081377479 ORBCOMM FM32 1 25982U 99065C 26105.30717219 .00000358 00000+0 16721-3 0 9994 2 25982 45.0144 110.8515 0003671 104.7239 255.4016 14.37036402378045 ORBCOMM FM33 1 25983U 99065D 26105.07310932 .00000449 00000+0 18301-3 0 9997 2 25983 45.0300 2.7128 0007399 137.9481 222.1938 14.40870015379592 ORBCOMM FM36 1 25984U 99065E 26105.28464820 .00000556 00000+0 22398-3 0 9997 2 25984 45.0382 98.1741 0003807 341.4404 18.6306 14.39077892377922 ORBCOMM FM35 1 25985U 99065F 26105.28200307 .00000443 00000+0 19191-3 0 9998 2 25985 45.0383 105.7243 0001317 113.4759 246.6228 14.37960334378253 ORBCOMM FM34 1 25986U 99065G 26105.25527979 .00000346 00000+0 16051-3 0 9997 2 25986 45.0378 106.3876 0002727 21.6236 338.4727 14.37856142378360 ORBCOMM FM38 1 33060U 08031A 26104.97804782 .00000771 00000+0 12085-3 0 9995 2 33060 48.4408 315.3157 0005005 261.5716 98.4633 14.82889149959511 ORBCOMM FM41 1 33061U 08031B 26104.87162056 .00000738 00000+0 11793-3 0 9994 2 33061 48.4446 324.7026 0004218 245.6236 128.0867 14.82415518958971 ORBCOMM FM29 1 33062U 08031C 26105.05611847 .00000771 00000+0 12164-3 0 9993 2 33062 48.4400 331.1814 0005818 246.1961 267.7189 14.82595696958915 ORBCOMM FM39 1 33063U 08031D 26104.96708230 .00000671 00000+0 11329-3 0 9997 2 33063 48.4417 359.3967 0006587 216.3070 143.7399 14.80956475958504 ORBCOMM FM37 1 33064U 08031E 26105.05783769 .00000659 00000+0 11127-3 0 9991 2 33064 48.4409 347.0219 0005290 236.3070 266.1586 14.81147277958772 ORBCOMM FM40 1 33065U 08031F 26105.01208250 .00000939 00000+0 13831-3 0 9990 2 33065 48.4426 325.7667 0006334 252.1432 269.8809 14.83837562958953 VESSELSAT 1 1 37840U 11058C 26105.19693443 .00000317 00000+0 28194-4 0 9998 2 37840 19.9622 66.3090 0013465 268.7218 91.1643 14.11428054749026 ORBCOMM FM109 1 40086U 14040A 26105.15674068 .00000205 00000+0 79651-4 0 9996 2 40086 47.0046 29.4726 0002296 293.5426 66.5218 14.58777342625145 ORBCOMM FM107 1 40087U 14040B 26105.16922803 .00000183 00000+0 74895-4 0 9991 2 40087 47.0062 30.2461 0001393 251.9758 108.0976 14.58864325625223 ORBCOMM FM106 1 40088U 14040C 26105.23074183 .00000280 00000+0 77117-4 0 9997 2 40088 47.0595 187.4983 0015774 28.4662 331.7088 14.70388837627918 ORBCOMM FM111 1 40089U 14040D 26105.08507801 .00001172 00000+0 14754-3 0 9997 2 40089 47.0029 356.0985 0028728 201.5397 158.4294 14.88550813635173 ORBCOMM FM104 1 40090U 14040E 26105.21889436 .00000164 00000+0 73402-4 0 9997 2 40090 47.0050 67.2989 0015411 147.7274 212.4557 14.57215882624669 ORBCOMM FM103 1 40091U 14040F 26105.15940960 .00000201 00000+0 78914-4 0 9996 2 40091 47.0065 31.0415 0001979 244.2253 115.8429 14.58768086608186 ORBCOMM FM114 1 41179U 15081A 26105.24292773 .00000190 00000+0 76615-4 0 9995 2 41179 47.0051 299.5811 0002692 269.1135 90.9443 14.58787232548566 ORBCOMM FM119 1 41180U 15081B 26105.31215101 .00000175 00000+0 73428-4 0 9997 2 41180 46.9997 208.6138 0001244 305.2975 54.7794 14.58728889549824 ORBCOMM FM105 1 41181U 15081C 26104.40770717 .00000068 00000+0 63571-4 0 9995 2 41181 47.0013 247.4150 0002358 235.4520 124.6138 14.45522941544324 ORBCOMM FM110 1 41182U 15081D 26105.23187742 .00000238 00000+0 86660-4 0 9991 2 41182 47.0024 299.0934 0002812 152.0263 208.0774 14.58806327548439 ORBCOMM FM118 1 41183U 15081E 26105.26655049 .00000255 00000+0 90271-4 0 9997 2 41183 47.0046 299.2527 0002617 109.1673 250.9496 14.58803816548544 ORBCOMM FM112 1 41184U 15081F 26105.26945328 .00000280 00000+0 95504-4 0 9992 2 41184 46.9987 207.7213 0002748 265.3775 94.6797 14.58801199549760 ORBCOMM FM113 1 41185U 15081G 26105.31530906 .00000168 00000+0 71924-4 0 9996 2 41185 47.0001 207.8792 0002317 270.5466 89.5155 14.58789990549754 ORBCOMM FM115 1 41186U 15081H 26105.21190606 .00000276 00000+0 87225-4 0 9996 2 41186 46.9993 42.3576 0001242 338.0757 22.0077 14.63187382551991 ORBCOMM FM108 1 41187U 15081J 26105.00395026 .00000222 00000+0 83274-4 0 9998 2 41187 47.0036 120.9037 0003712 270.0484 89.9977 14.58805329550850 ORBCOMM FM117 1 41188U 15081K 26105.31182261 .00000166 00000+0 71523-4 0 9999 2 41188 46.9998 118.1016 0004131 275.7907 84.2507 14.58800419550942 ORBCOMM FM116 1 41189U 15081L 26105.29272471 .00000297 00000+0 99152-4 0 9993 2 41189 47.0019 207.9815 0001507 169.7042 190.3875 14.58797940549757